Tracking 20623 objects as of 4-Apr-2020
HD Live streaming from Space Station
objects crossing your sky now

SWAMPSAT-2

Track SWAMPSAT-2 now!
10-day predictions
SWAMPSAT-2 is classified as:


NORAD ID: 45115
Int'l Code: 2019-071E
Perigee: 462.0 km
Apogee: 480.8 km
Inclination: 51.6 °
Period: 93.9 minutes
Semi major axis: 6842 km
RCS: Unknown
Launch date: November 2, 2019
Source: United States (US)
Launch site: WALLOPS ISLAND (WLPIS)

Uplink (MHz):
Downlink (MHz): 145.875/436.350/2432.000
Beacon (MHz):
Mode: 9k6 GMSK/3Mbps QPSK
Call sign: WK2XID
Status: Active

aabbcc
Your satellite tracking list
Your tracking list is empty




NASA's NSSDC Master Catalog

Two Line Element Set (TLE):
1 45115U 19071E   20094.83881221 +.00009855 +00000-0 +30640-3 0  9995
2 45115 051.6429 003.7540 0013724 144.6488 215.5406 15.33883433009661
Source of the keplerian elements: AFSPC